Weather History for PARC - March, 2014

Change the Weather History Date:

Tuesday, March 18, 2014

  Actual Average Record
Temperature  
Mean Temperature 0 °F -  
Max Temperature 12 °F - - ()
Min Temperature -13 °F - - ()
Degree Days  
Heating Degree Days 66    
Moisture  
Dew Point -11 °F    
Average Humidity 57    
Maximum Humidity 100    
Minimum Humidity 24    
Precipitation  
Precipitation 0.00 in - - ()
Sea Level Pressure  
Sea Level Pressure 29.74 in    
Wind  
Wind Speed 2 mph (NE)    
Max Wind Speed 6 mph    
Max Gust Speed -    
Visibility 10 miles    
Events      
T = Trace of Precipitation, MM = Missing Value Source: NWS Daily Summary

Daily Weather History Graph

Daily Weather History Graph

Search for Another Location

Airport or City:

Trip Planner

Search our weather history database for the weather conditions in past years. The results will help you decide how hot, cold, wet, or windy it might be!

Date:

Astronomy

Mar. 18, 2014 Rise Set
Actual Time 7:49 AM AKDT 7:53 PM AKDT
Civil Twilight 6:53 AM AKDT 8:49 PM AKDT
Nautical Twilight 5:44 AM AKDT 9:58 PM AKDT
Astronomical Twilight 4:21 AM AKDT 11:24 PM AKDT
Moon 11:43 PM AKDT (3/18) 7:40 AM AKDT (3/18)
Length of Visible Light 13h 55m
Length of Day
12h 03m
Waning Gibbous, 95% of the Moon is Illuminated
Mar 18
Waning Gibbous
Mar 23
Last Quarter
Mar 30
New
Apr 7
First Quarter
Apr 14
Full

Hourly Weather History & Observations

Time (AKDT) Temp. Windchill Dew Point Humidity Pressure Visibility Wind Dir Wind Speed Gust Speed Precip Events Conditions
12:16 AM -7.6 °F - - N/A% 29.65 in 10.0 mi Calm Calm - N/A   Scattered Clouds
12:36 AM -4.0 °F -16.3 °F -27.4 °F 32% 29.65 in 9.0 mi NE 5.8 mph - N/A   Clear
12:56 AM -4.0 °F -16.3 °F -7.6 °F 85% 29.66 in 10.0 mi NNE 5.8 mph - N/A   Clear
1:16 AM -5.8 °F -16.7 °F -29.2 °F 32% 29.66 in 10.0 mi NE 4.6 mph - N/A   Clear
1:36 AM -7.6 °F -18.8 °F - N/A% 29.66 in 10.0 mi NNE 4.6 mph - N/A   Clear
1:56 AM -5.8 °F -16.7 °F - N/A% 29.66 in 10.0 mi NE 4.6 mph - N/A   Clear
2:16 AM -7.6 °F -16.5 °F - N/A% 29.66 in 6.0 mi NE 3.5 mph - N/A   Clear
2:36 AM -7.6 °F -16.5 °F - N/A% 29.66 in 10.0 mi NNE 3.5 mph - N/A   Clear
2:56 AM -7.6 °F - -18.4 °F 59% 29.67 in 10.0 mi Calm Calm - N/A   Clear
3:16 AM -5.8 °F - - N/A% 29.67 in 10.0 mi Calm Calm - N/A   Clear
3:36 AM -7.6 °F -16.5 °F -18.4 °F 59% 29.67 in 10.0 mi NE 3.5 mph - N/A   Mostly Cloudy
3:56 AM -5.8 °F -14.5 °F - N/A% 29.67 in 10.0 mi ENE 3.5 mph - N/A   Partly Cloudy
4:16 AM -5.8 °F -14.5 °F -22.0 °F 46% 29.67 in 10.0 mi NE 3.5 mph - N/A   Clear
4:36 AM -13.0 °F - - N/A% 29.67 in 10.0 mi Calm Calm - N/A   Clear
4:56 AM -11.2 °F - - N/A% 29.67 in 10.0 mi Calm Calm - N/A   Clear
5:16 AM -9.4 °F -18.6 °F -9.4 °F 100% 29.67 in 10.0 mi NE 3.5 mph - N/A   Clear
5:36 AM -9.4 °F -22.7 °F - N/A% 29.67 in 10.0 mi NNE 5.8 mph - N/A   Clear
5:56 AM -9.4 °F -20.9 °F -27.4 °F 41% 29.67 in 10.0 mi NNE 4.6 mph - N/A   Partly Cloudy
6:16 AM -9.4 °F -20.9 °F - N/A% 29.68 in 10.0 mi NE 4.6 mph - N/A   Partly Cloudy
6:36 AM -7.6 °F -18.8 °F - N/A% 29.69 in 10.0 mi NE 4.6 mph - N/A   Partly Cloudy
6:56 AM -11.2 °F - -23.8 °F 54% 29.69 in 10.0 mi Calm Calm - N/A   Clear
7:16 AM -11.2 °F -20.6 °F -14.8 °F 84% 29.69 in 10.0 mi NE 3.5 mph - N/A   Clear
7:36 AM -9.4 °F -18.6 °F -16.6 °F 71% 29.69 in 9.0 mi NE 3.5 mph - N/A   Clear
7:56 AM -9.4 °F -22.7 °F -18.4 °F 65% 29.69 in 10.0 mi NNE 5.8 mph - N/A   Clear
8:16 AM -9.4 °F -22.7 °F -18.4 °F 65% 29.69 in 10.0 mi NE 5.8 mph - N/A   Clear
8:36 AM -13.0 °F -22.7 °F - N/A% 29.70 in 10.0 mi NE 3.5 mph - N/A   Mostly Cloudy
8:56 AM -11.2 °F - - N/A% 29.70 in 10.0 mi Calm Calm - N/A   Scattered Clouds
9:16 AM -9.4 °F -18.6 °F -18.4 °F 65% 29.70 in 9.0 mi NE 3.5 mph - N/A   Clear
9:36 AM -11.2 °F - -25.6 °F 49% 29.71 in 10.0 mi Calm Calm - N/A   Clear
9:56 AM -9.4 °F - -20.2 °F 59% 29.71 in 10.0 mi Calm Calm - N/A   Clear
10:16 AM -7.6 °F - -14.8 °F 71% 29.71 in 10.0 mi Calm Calm - N/A   Clear
10:36 AM -9.4 °F - - N/A% 29.71 in 10.0 mi Calm Calm - N/A   Clear
10:56 AM -7.6 °F - -25.6 °F 41% 29.72 in 10.0 mi Calm Calm - N/A   Clear
11:16 AM -5.8 °F - -11.2 °F 77% 29.72 in 10.0 mi Calm Calm - N/A   Clear
11:36 AM -0.4 °F - -7.6 °F 72% 29.72 in 10.0 mi Calm Calm - N/A   Clear
11:56 AM -0.4 °F -12.0 °F - N/A% 29.73 in 10.0 mi NNE 5.8 mph - N/A   Clear
12:16 PM 1.4 °F -6.2 °F -27.4 °F 25% 29.73 in 10.0 mi NNE 3.5 mph - N/A   Clear
12:36 PM 3.2 °F - 1.4 °F 92% 29.74 in 10.0 mi Calm Calm - N/A   Clear
12:56 PM 5.0 °F - -9.4 °F 52% 29.74 in 10.0 mi Calm Calm - N/A   Clear
1:16 PM 5.0 °F - -7.6 °F 56% 29.75 in 10.0 mi Calm Calm - N/A   Clear
1:36 PM 6.8 °F - 3.2 °F 85% 29.75 in 10.0 mi Calm Calm - N/A   Clear
1:56 PM 6.8 °F - -11.2 °F 44% 29.75 in 10.0 mi Calm Calm - N/A   Clear
2:16 PM 8.6 °F 2.0 °F -2.2 °F 62% 29.75 in 10.0 mi East 3.5 mph - N/A   Clear
2:36 PM 8.6 °F 0.1 °F -0.4 °F 67% 29.76 in 10.0 mi East 4.6 mph - N/A   Clear
2:56 PM 8.6 °F - -14.8 °F 34% 29.76 in 10.0 mi Calm Calm - N/A   Clear
3:16 PM 8.6 °F - 5.0 °F 85% 29.76 in 10.0 mi Calm Calm - N/A   Clear
3:36 PM 8.6 °F - -9.4 °F 44% 29.76 in 10.0 mi Calm Calm - N/A   Clear
3:56 PM 10.4 °F - -9.4 °F 41% 29.76 in 10.0 mi Calm Calm - N/A   Clear
4:16 PM 10.4 °F - 6.8 °F 85% 29.76 in 10.0 mi Calm Calm - N/A   Clear
4:36 PM 10.4 °F - -13.0 °F 34% 29.77 in 10.0 mi Calm Calm - N/A   Clear
4:56 PM 10.4 °F - -5.8 °F 48% 29.77 in 10.0 mi Calm Calm - N/A   Clear
5:16 PM 12.2 °F - 1.4 °F 62% 29.77 in 10.0 mi Calm Calm - N/A   Clear
5:36 PM 12.2 °F - -13.0 °F 32% 29.78 in 10.0 mi Calm Calm - N/A   Clear
5:56 PM 12.2 °F - -0.4 °F 57% 29.78 in 10.0 mi Calm Calm - N/A   Clear
6:16 PM 12.2 °F - -2.2 °F 53% 29.79 in 10.0 mi Calm Calm - N/A   Clear
6:36 PM 12.2 °F - -14.8 °F 29% 29.79 in 10.0 mi Calm Calm - N/A   Clear
6:56 PM 12.2 °F - 1.4 °F 62% 29.80 in 10.0 mi Calm Calm - N/A   Clear
7:16 PM 10.4 °F - -2.2 °F 57% 29.80 in 10.0 mi Calm Calm - N/A   Clear
7:36 PM 10.4 °F - -20.2 °F 24% 29.81 in 10.0 mi Calm Calm - N/A   Clear
7:56 PM 10.4 °F - -5.8 °F 48% 29.81 in 9.0 mi Calm Calm - N/A   Clear
8:16 PM 8.6 °F - -7.6 °F 48% 29.81 in 10.0 mi Calm Calm - N/A   Clear
8:36 PM 8.6 °F - -2.2 °F 62% 29.82 in 10.0 mi Calm Calm - N/A   Clear
8:56 PM 8.6 °F - -4.0 °F 57% 29.83 in 5.0 mi Calm Calm - N/A   Clear
9:16 PM 6.8 °F - -5.8 °F 56% 29.83 in 10.0 mi Calm Calm - N/A   Clear
9:36 PM 6.8 °F - -0.4 °F 72% 29.84 in 10.0 mi Calm Calm - N/A   Clear
9:56 PM 6.8 °F -0.1 °F -4.0 °F 61% 29.84 in 10.0 mi NNE 3.5 mph - N/A   Clear
10:16 PM 1.4 °F - -11.2 °F 56% 29.85 in 10.0 mi Calm Calm - N/A   Clear
10:36 PM 1.4 °F - 1.4 °F 100% 29.86 in 10.0 mi Calm Calm - N/A   Clear
10:56 PM 1.4 °F -6.2 °F -9.4 °F 61% 29.86 in 9.0 mi NE 3.5 mph - N/A   Clear
11:16 PM 1.4 °F -6.2 °F -16.6 °F 43% 29.87 in 9.0 mi NE 3.5 mph - N/A   Clear
11:36 PM -0.4 °F -10.4 °F - N/A% 29.88 in 10.0 mi NE 4.6 mph - N/A   Clear
11:56 PM -0.4 °F - -20.2 °F 39% 29.88 in 10.0 mi Calm Calm - N/A   Clear